Theta_e
307 305 304 304 303 302 302 301 299 297 297 296 295 295 295 293 293 293 293 292 292 292 291 291 290 290 289 288 288 288 286 285 284 284 285 287 286 287 286 286 285 286 286
307 304 302 302 302 302 301 300 299 297 296 295 294 293 293 293 293 292 292 292 292 291 291 291 290 289 288 287 288 287 285 284 284 284 285 285 286 285 285 286 285 284 285
307 304 303 302 302 301 300 298 297 296 295 294 293 293 293 293 292 292 291 291 291 290 290 289 289 288 287 287 287 286 285 284 285 284 284 282 285 284 286 285 285 284 284
306 304 303 301 300 299 298 297 297 296 294 293 292 292 292 292 291 290 290 290 290 289 289 288 287 287 287 287 287 285 284 285 285 285 284 284 284 284 286 285 285 284 284
306 304 302 300 298 298 297 297 296 295 294 292 292 291 291 290 290 290 289 289 289 288 287 286 286 287 287 286 285 284 284 285 285 285 285 285 284 284 284 284 284 283 284
306 304 301 299 297 297 297 297 295 294 293 292 291 291 290 289 289 288 288 288 288 287 286 286 286 286 286 285 284 283 284 283 284 284 285 285 284 284 284 283 283 283 284
306 301 300 298 296 297 297 296 295 293 292 291 291 290 289 288 288 288 287 287 286 286 286 286 285 286 285 284 283 282 282 283 283 283 284 284 284 284 284 284 283 284 284
303 301 300 298 296 297 296 295 294 293 292 291 290 289 288 287 287 286 286 286 286 285 285 285 285 285 284 283 283 281 281 282 282 283 284 284 284 283 283 284 284 283 284
302 300 299 298 297 296 295 294 294 292 291 290 289 288 287 287 286 286 285 285 285 285 285 285 285 285 283 283 282 281 281 282 282 283 284 284 283 283 283 284 283 284 283
301 300 298 297 296 295 294 294 293 292 290 290 289 287 287 286 286 285 285 285 285 285 285 285 285 284 283 282 281 281 281 282 282 283 284 284 284 284 283 283 282 282 283
301 299 298 295 295 295 294 293 293 291 290 289 288 287 286 286 286 285 285 285 285 285 285 285 285 284 283 282 281 281 281 282 282 283 284 284 284 283 282 282 282 282 282
300 298 296 295 295 294 294 293 292 290 289 288 288 287 286 286 285 285 285 284 285 285 285 285 284 284 283 282 281 281 282 282 283 283 284 283 282 282 282 282 282 282 282
299 298 296 295 295 295 294 292 290 289 289 288 287 286 286 286 285 285 284 284 285 285 285 285 284 283 282 282 281 281 282 282 283 283 283 283 282 282 282 281 281 281 282
300 298 296 295 295 295 293 291 289 289 288 287 286 286 286 285 285 284 284 284 284 285 285 284 283 283 282 282 282 281 281 282 283 282 282 281 281 282 282 282 282 282 282
300 298 296 296 296 294 292 290 289 288 288 287 286 286 285 285 285 284 284 285 285 285 285 284 283 282 281 281 281 281 280 281 282 281 281 281 282 282 282 283 283 283 284
301 298 297 297 295 293 290 289 289 288 287 286 286 285 285 285 284 284 285 285 286 285 284 283 282 281 281 281 281 281 280 280 281 281 281 281 281 282 282 282 282 283 284
300 299 298 297 295 292 290 289 288 287 286 286 285 285 285 284 284 285 285 285 284 285 283 282 281 279 279 280 281 280 280 280 281 281 281 281 282 282 282 282 282 283 284
300 299 298 295 293 291 289 289 287 287 286 285 285 284 284 285 284 284 283 283 283 282 282 281 279 278 279 280 281 280 280 280 280 281 281 281 282 282 282 282 282 283 284
300 297 294 293 291 289 288 288 287 286 285 285 284 284 284 283 283 282 281 281 281 281 280 279 278 278 278 279 281 281 280 280 280 281 280 281 281 282 282 282 282 283 285
296 294 293 291 289 288 288 287 286 285 285 285 284 284 283 282 280 280 279 278 279 279 278 278 278 278 278 279 281 281 280 280 280 280 280 280 281 281 282 282 282 283 284
294 293 291 289 288 288 288 286 286 285 285 283 283 283 283 278 277 277 277 276 277 278 278 278 278 279 279 279 280 281 280 279 280 280 280 280 281 281 281 282 282 283 285
294 292 290 289 288 288 287 286 285 285 284 284 283 282 280 279 279 278 277 277 277 277 277 277 278 278 280 280 280 280 280 280 279 279 279 280 280 281 281 282 283 284 285
293 291 289 288 287 287 287 285 285 284 284 283 283 282 282 282 281 280 279 278 277 277 277 277 277 278 279 280 280 279 279 279 279 279 279 279 280 281 282 282 283 284 284
291 289 288 287 287 286 286 284 284 284 284 283 283 283 283 283 283 282 281 278 277 277 278 278 278 279 279 280 280 279 279 278 279 279 279 279 280 280 281 282 283 283 284
289 289 288 287 286 286 284 284 284 285 285 284 283 283 283 283 283 282 282 280 278 277 278 279 279 279 279 279 279 279 279 278 277 278 278 278 278 278 279 280 281 283 284
289 288 287 286 285 284 283 285 285 285 283 283 283 283 283 283 282 282 281 280 278 277 278 279 280 279 279 278 278 278 278 277 276 277 275 276 277 277 277 278 279 281 283
Wind_Speed
19 24 31 35 32 26 22 18 15 10 7 6 7 7 7 8 7 10 9 7 11 8 10 13 14 15 19 19 17 23 28 29 27 21 19 11 10 9 20 20 28 25 23
14 23 26 30 31 29 24 19 15 10 9 7 8 8 9 11 10 11 13 9 8 7 10 11 13 14 18 18 17 22 24 19 21 12 9 4 7 14 12 21 28 28 24
19 18 23 26 32 30 25 20 16 12 10 7 5 6 7 10 11 13 13 14 10 11 13 14 15 17 18 16 16 20 20 17 16 15 8 3 3 16 10 16 26 28 24
17 18 22 23 30 30 25 20 14 12 12 11 11 11 11 10 10 11 13 15 10 13 15 16 17 17 17 13 17 20 18 15 15 16 7 7 9 3 4 12 16 29 24
20 18 23 26 32 31 26 19 14 13 12 12 12 11 10 10 9 11 10 11 13 15 17 19 19 17 15 14 18 19 17 17 17 15 12 11 14 10 4 6 13 21 23
18 21 25 29 30 28 23 17 15 14 11 11 10 9 10 9 10 10 12 12 12 14 19 19 16 16 15 18 19 17 16 17 16 16 13 11 7 8 7 4 11 12 19
18 18 23 24 26 27 22 19 16 15 12 10 9 9 9 10 9 11 11 13 14 15 17 14 16 14 17 20 17 19 18 16 18 15 14 11 12 14 14 11 10 7 16
16 17 23 24 26 26 21 19 16 15 12 11 11 10 10 10 9 10 11 13 12 13 14 12 16 16 21 18 17 25 19 17 16 14 11 12 13 13 13 14 11 6 4
17 17 22 22 25 24 22 19 17 15 12 12 9 10 10 9 10 11 11 12 13 12 11 15 15 19 21 16 21 27 20 18 16 15 13 13 14 13 13 12 11 8 3
16 14 20 21 24 25 21 18 16 14 12 9 9 10 10 9 10 10 10 13 13 11 13 15 15 20 18 18 27 26 20 19 16 16 16 14 15 12 11 12 13 11 10
15 14 19 22 29 25 20 20 16 13 11 10 10 10 9 9 10 10 12 14 12 12 12 13 16 20 17 21 28 25 21 19 20 19 18 13 12 12 15 13 13 14 13
15 17 21 22 23 21 21 18 14 13 11 11 9 9 8 8 10 12 13 13 12 12 13 11 17 19 16 24 26 25 23 22 20 17 11 12 15 16 15 13 12 16 15
14 13 17 16 20 20 19 16 13 12 12 9 9 8 7 10 11 13 13 13 13 12 10 12 16 17 19 24 26 22 22 21 15 13 12 12 16 18 16 19 16 17 14
13 11 12 14 15 17 19 17 14 13 11 10 9 8 8 11 12 13 13 13 13 12 6 13 14 16 20 24 25 22 19 18 13 14 14 16 17 18 18 20 18 14 14
12 10 9 14 16 19 18 15 14 13 10 10 8 8 9 11 13 14 14 14 14 10 9 12 13 20 20 23 24 21 17 15 15 16 17 17 17 17 19 19 15 14 15
12 12 15 16 18 18 18 16 14 11 11 10 9 8 11 13 14 15 16 15 13 8 10 11 14 20 19 23 23 20 17 15 15 17 20 20 19 21 20 16 11 10 10
13 13 15 17 17 18 18 17 13 13 13 11 10 10 11 13 14 17 18 16 17 11 12 13 16 23 21 22 23 22 16 16 16 18 21 22 21 21 20 16 11 9 6
11 12 14 19 20 21 18 16 16 14 12 11 10 9 12 14 15 16 16 16 18 19 15 16 20 25 20 22 24 22 18 18 17 19 20 22 21 21 18 16 14 10 7
13 14 17 24 24 22 19 20 17 14 13 12 11 10 12 14 15 16 16 15 15 16 17 18 21 23 21 22 25 23 21 20 20 18 20 21 21 20 19 17 18 14 10
19 19 22 22 22 21 21 19 15 13 12 9 12 12 12 15 16 15 16 16 14 15 19 19 19 20 23 22 25 23 21 19 19 19 21 20 22 19 20 18 19 17 14
21 20 20 19 20 21 19 17 15 14 10 10 10 9 13 17 19 18 19 19 19 18 22 23 22 24 24 24 24 23 23 20 17 19 23 24 23 20 19 18 19 15 12
18 19 20 20 20 18 16 16 14 11 9 8 10 13 15 18 19 20 22 22 22 25 24 22 23 25 26 24 23 23 21 19 18 22 24 24 22 20 20 21 19 16 16
17 17 20 21 17 15 11 14 9 10 10 9 9 11 12 14 16 18 21 22 22 24 19 20 22 26 26 24 24 23 22 19 21 20 20 21 23 24 24 24 23 23 22
15 19 21 20 15 14 12 11 13 12 10 8 7 7 8 10 12 15 16 17 19 20 22 24 25 28 26 27 25 25 24 22 22 22 24 24 25 25 26 28 27 26 24
16 19 21 19 16 13 14 14 10 5 6 7 7 6 6 8 11 12 13 13 15 16 18 20 19 23 22 24 20 21 23 21 20 21 23 28 29 29 30 30 30 28 27
21 19 18 16 15 13 15 9 4 5 8 10 9 8 7 8 9 12 12 11 13 12 14 15 17 18 18 20 18 18 20 20 16 25 24 25 25 25 26 26 28 29 29
Wind_Direction
158 143 145 145 141 137 128 125 122 112 110 84 57 42 28 77 81 48 24 19 12 11 18 19 15 14 15 9 12 7 6 11 7 352 350 351 335 14 30 13 11 8 5
152 141 139 140 141 136 131 125 113 103 96 74 64 70 84 65 73 38 30 20 5 54 37 32 25 20 14 7 14 12 10 10 14 0 338 351 339 339 347 359 2 359 0
151 147 143 140 139 136 132 125 115 100 82 66 77 79 82 58 43 37 39 36 63 46 33 26 25 16 9 15 14 12 10 3 1 14 25 346 340 322 326 336 348 350 354
141 144 141 138 134 135 132 126 115 97 80 68 68 66 56 50 48 48 39 43 38 29 26 18 11 9 7 22 10 3 1 356 351 343 349 340 304 321 317 335 330 341 344
146 141 140 132 133 136 131 125 113 93 79 75 70 66 65 74 58 39 35 37 35 27 20 13 9 9 21 11 2 359 355 354 342 323 308 317 327 315 320 308 331 331 336
138 127 126 126 130 134 130 126 112 100 88 86 74 66 68 58 42 38 40 33 19 19 15 12 9 10 9 0 357 353 354 353 352 354 335 317 301 306 299 300 317 309 322
130 128 127 127 131 135 133 126 116 106 96 94 87 73 57 48 40 40 38 23 17 14 13 11 8 7 358 350 356 355 348 349 346 342 332 322 308 307 306 301 301 301 311
122 124 131 133 136 140 137 130 118 112 104 103 89 70 58 53 48 40 34 21 19 14 9 7 0 358 351 351 359 353 347 346 348 342 331 314 312 310 307 302 297 305 273
124 127 128 131 139 142 139 131 119 114 104 98 80 65 56 48 46 36 25 23 16 14 12 2 359 354 355 357 354 353 353 352 353 346 331 318 317 312 310 309 311 301 316
120 122 128 128 136 141 137 128 120 111 105 87 77 64 55 51 36 28 26 24 14 16 4 359 357 355 358 2 354 356 358 353 350 341 327 314 315 313 306 306 304 297 291
130 133 134 134 139 137 130 125 118 111 102 97 79 65 53 40 32 23 22 21 11 12 1 358 356 357 358 0 357 358 356 353 343 337 328 322 321 317 315 308 299 299 299
136 140 139 136 133 128 130 127 120 109 116 107 84 70 57 35 29 24 22 15 10 5 359 360 1 358 1 357 359 355 355 351 342 344 342 334 331 330 325 323 307 301 298
132 121 122 136 139 131 128 121 113 113 123 96 70 60 60 41 31 24 18 11 13 0 3 4 4 3 1 359 358 353 353 356 359 348 335 330 335 331 326 322 312 306 297
125 138 136 133 133 130 132 123 117 122 111 86 69 61 53 43 34 27 18 14 6 2 34 6 10 14 7 0 356 354 351 358 358 350 343 335 333 328 326 319 316 309 298
144 137 140 144 136 132 133 123 122 121 110 93 78 66 49 39 34 26 21 14 8 23 14 10 20 16 14 1 355 353 349 357 355 354 348 342 333 328 325 322 322 313 306
143 146 149 140 140 134 135 130 128 119 112 94 74 65 40 40 33 27 15 15 31 45 18 26 27 13 12 1 357 352 353 358 353 343 345 344 334 337 336 331 322 306 287
150 153 150 140 138 138 139 126 126 121 107 89 71 57 42 37 32 35 36 44 39 35 35 40 21 9 12 4 359 356 1 358 353 342 338 344 346 347 347 345 346 330 311
147 145 130 123 132 140 128 124 126 112 99 85 66 51 45 46 50 40 46 44 47 55 50 30 13 8 17 5 1 360 8 4 1 351 350 350 353 354 351 352 358 351 329
101 109 124 129 137 134 130 127 118 107 94 81 62 54 58 52 42 42 42 36 37 46 36 25 17 17 19 1 1 357 3 353 3 359 360 357 360 358 359 1 2 1 3
111 119 127 134 134 134 135 126 115 106 95 78 69 80 61 43 43 44 40 34 39 40 36 30 31 21 21 11 3 3 8 358 356 357 3 3 1 359 5 8 7 355 3
112 120 127 130 137 139 137 124 120 113 107 97 86 74 56 56 59 59 52 47 48 49 45 38 33 30 22 16 6 9 13 8 359 3 2 5 3 5 11 18 14 9 19
123 134 130 133 141 142 137 126 122 125 122 115 88 79 75 69 63 59 54 49 48 49 40 25 19 25 25 21 11 13 15 14 15 5 5 6 10 17 23 26 28 37 41
128 147 133 136 138 143 148 132 132 143 134 129 113 96 82 71 60 54 49 44 41 44 32 23 16 13 15 17 20 18 15 16 25 14 10 17 25 30 35 33 38 42 40
150 144 141 137 139 144 134 131 139 141 144 144 141 111 82 72 56 47 44 37 34 36 29 20 18 17 13 14 17 17 16 18 29 30 31 31 32 32 33 35 38 39 38
139 154 147 149 147 145 140 142 144 121 143 136 127 139 91 65 52 43 32 31 32 28 12 14 20 20 12 12 14 15 16 13 23 33 27 25 23 19 18 23 26 34 38
160 152 148 150 152 153 156 158 157 143 154 119 119 102 90 70 55 43 35 35 28 26 31 27 28 24 23 19 23 22 24 23 34 37 21 18 15 14 11 10 13 21 27